Chippewa, MI

4:17 PM EST on November 17, 2019 (GMT -0500)
Chippewa County International

Weather History for KCIU - August, 2019

Change the Weather History Date:

Saturday, August 31, 2019

  Actual Average Record
Temperature  
Mean Temperature 60 °F -  
Max Temperature 72 °F 73 °F 88 °F (1991)
Min Temperature 48 °F 48 °F 32 °F (1978)
Degree Days  
Heating Degree Days 6    
Growing Degree Days 10 (Base 50)    
Moisture  
Dew Point 47 °F    
Average Humidity 65    
Maximum Humidity 86    
Minimum Humidity 41    
Precipitation  
Precipitation 0.00 in - - ()
Sea Level Pressure  
Sea Level Pressure 30.29 in    
Wind  
Wind Speed 4 mph ()    
Max Wind Speed 9 mph    
Max Gust Speed -    
Visibility 10.0 miles    
Events      
Averages and records for this station are not official NWS values.
T = Trace of Precipitation, MM = Missing Value Source: Averaged Metar Reports

Daily Weather History Graph

Daily Weather History Graph

Search for Another Location

Airport or City:

Astronomy

Aug. 31, 2019 Rise Set
Actual Time 6:56 AM EDT 8:18 PM EDT
Civil Twilight 6:25 AM EDT 8:49 PM EDT
Nautical Twilight 5:47 AM EDT 9:27 PM EDT
Astronomical Twilight 5:07 AM EDT 10:07 PM EDT
Moon 8:13 AM EDT (8/31) 9:26 PM EDT (8/31)
Length of Visible Light 14h 24m
Length of Day
13h 22m
New Moon, 2% of the Moon is Illuminated
Aug 31
New Moon
Sep 5
First Quarter
Sep 14
Full
Sep 21
Last Quarter
Sep 28
New

Hourly Weather History & Observations

Time (EDT) Temp. Dew Point Humidity Pressure Visibility Wind Dir Wind Speed Gust Speed Precip Events Conditions
12:56 AM 50.0 °F 45.0 °F 83% 30.22 in 10.0 mi West 5.8 mph - N/A   Clear
1:56 AM 50.0 °F 45.0 °F 83% 30.25 in 10.0 mi WSW 6.9 mph - N/A   Clear
2:56 AM 50.0 °F 45.0 °F 83% 30.25 in 10.0 mi West 4.6 mph - N/A   Overcast
3:56 AM 52.0 °F 45.0 °F 77% 30.25 in 10.0 mi West 3.5 mph - N/A   Mostly Cloudy
4:56 AM 52.0 °F 45.0 °F 77% 30.27 in 10.0 mi West 5.8 mph - N/A   Clear
5:56 AM 48.9 °F 45.0 °F 86% 30.27 in 10.0 mi West 5.8 mph - N/A   Clear
6:56 AM 48.0 °F 44.1 °F 86% 30.29 in 10.0 mi WNW 4.6 mph - N/A   Clear
7:56 AM 50.0 °F 46.0 °F 86% 30.31 in 10.0 mi Calm Calm - N/A   Clear
8:56 AM 53.1 °F 46.9 °F 80% 30.32 in 10.0 mi West 4.6 mph - N/A   Clear
9:56 AM 61.0 °F 48.9 °F 64% 30.33 in 10.0 mi Calm Calm - N/A   Clear
10:56 AM 66.0 °F 50.0 °F 56% 30.32 in 10.0 mi Calm Calm - N/A   Clear
11:56 AM 68.0 °F 46.9 °F 47% 30.34 in 10.0 mi Calm Calm - N/A   Clear
12:56 PM 69.1 °F 45.0 °F 42% 30.33 in 10.0 mi Calm Calm - N/A   Clear
1:56 PM 70.0 °F 45.0 °F 41% 30.33 in 10.0 mi West 4.6 mph - N/A   Partly Cloudy
2:56 PM 71.1 °F 46.0 °F 41% 30.32 in 10.0 mi Variable 3.5 mph - N/A   Partly Cloudy
3:56 PM 71.1 °F 46.9 °F 42% 30.30 in 10.0 mi WSW 9.2 mph - N/A   Mostly Cloudy
4:56 PM 71.1 °F 48.0 °F 44% 30.30 in 10.0 mi WSW 8.1 mph - N/A   Mostly Cloudy
5:56 PM 71.1 °F 46.9 °F 42% 30.29 in 10.0 mi Variable 5.8 mph - N/A   Clear
6:56 PM 70.0 °F 48.0 °F 46% 30.28 in 10.0 mi Variable 4.6 mph - N/A   Clear
7:56 PM 64.9 °F 50.0 °F 58% 30.29 in 10.0 mi South 5.8 mph - N/A   Clear
8:56 PM 61.0 °F 52.0 °F 72% 30.29 in 10.0 mi South 4.6 mph - N/A   Clear
9:56 PM 59.0 °F 50.0 °F 72% 30.30 in 10.0 mi SSW 4.6 mph - N/A   Clear
10:56 PM 57.0 °F 50.0 °F 77% 30.30 in 10.0 mi South 5.8 mph - N/A   Clear
11:56 PM 54.0 °F 48.9 °F 83% 30.30 in 10.0 mi South 5.8 mph - N/A   Clear